This is the latest recevied weather packets stored in our database for station/object 4S6DRJ-13. If no packets are shown the sender has not sent any weather packets the latest 10 day(s).
| Time | Temp. | Humidity | Pressure | Rain* | Wind** | Luminosity | Snow |
|---|---|---|---|---|---|---|---|
| 1788071605 | 31.11° C | 68% | 1010 hPa | 0 mm | 1.79 m/s, 221° | 622 W/m² | - |
| 1788071544 | 31.11° C | 68% | 1010.2 hPa | 0 mm | 1.34 m/s, 219° | 955 W/m² | - |
| 1788071484 | 31.11° C | 68% | 1010.2 hPa | 0 mm | 1.79 m/s, 80° | 912 W/m² | - |
| 1788071422 | 31.11° C | 67% | 1010.2 hPa | 0 mm | 2.24 m/s, 242° | 915 W/m² | - |
| 1788071361 | 31.67° C | 66% | 1010.3 hPa | 0 mm | 1.34 m/s, 253° | 863 W/m² | - |
| 1788071300 | 31.67° C | 66% | 1010.3 hPa | 0 mm | 2.68 m/s, 352° | 865 W/m² | - |
| 1788071239 | 31.11° C | 67% | 1010.1 hPa | 0 mm | 2.68 m/s, 117° | 863 W/m² | - |
| 1788071178 | 31.11° C | 68% | 1010.1 hPa | 0 mm | 0.45 m/s, 140° | 933 W/m² | - |
| 1788071117 | 31.11° C | 67% | 1010.1 hPa | 0 mm | 0.89 m/s, 298° | 919 W/m² | - |
| 1788071056 | 31.11° C | 67% | 1010.2 hPa | 0 mm | 1.79 m/s, 278° | 872 W/m² | - |
| 1788070995 | 31.11° C | 67% | 1010.3 hPa | 0 mm | 0.45 m/s, 248° | 551 W/m² | - |
| 1788070935 | 31.11° C | 67% | 1010.2 hPa | 0 mm | 2.68 m/s, 136° | 777 W/m² | - |
| 1788070878 | 31.11° C | 67% | 1010.2 hPa | 0 mm | 2.24 m/s, 229° | 896 W/m² | - |
| 1788070813 | 31.11° C | 68% | 1010.3 hPa | 0 mm | 0.89 m/s, 293° | 925 W/m² | - |
| 1788070752 | 31.11° C | 68% | 1010.3 hPa | 0 mm | 3.13 m/s, 304° | 964 W/m² | - |
| 1788070691 | 31.11° C | 70% | 1010.3 hPa | 0 mm | 2.24 m/s, 296° | 999 W/m² | - |
| 1788070630 | 31.11° C | 69% | 1010.2 hPa | 0 mm | 2.24 m/s, 239° | 610 W/m² | - |
| 1788070569 | 31.11° C | 70% | 1010.3 hPa | 0 mm | 1.34 m/s, 25° | 884 W/m² | - |
| 1788070508 | 31.11° C | 69% | 1010.4 hPa | 0 mm | 1.34 m/s, 229° | 502 W/m² | - |
| 1788070447 | 31.11° C | 69% | 1010.4 hPa | 0 mm | 3.13 m/s, 238° | 1104 W/m² | - |
| 1788070386 | 31.11° C | 69% | 1010.3 hPa | 0 mm | 2.68 m/s, 252° | 1106 W/m² | - |
| 1788070325 | 31.11° C | 70% | 1010.4 hPa | 0 mm | 1.79 m/s, 23° | 1102 W/m² | - |
| 1788070264 | 31.11° C | 69% | 1010.5 hPa | 0 mm | 2.24 m/s, 185° | 1110 W/m² | - |
| 1788070203 | 31.11° C | 69% | 1010.3 hPa | 0 mm | 2.68 m/s, 247° | 1113 W/m² | - |
| 1788070081 | 31.11° C | 71% | 1010.6 hPa | 0 mm | 0.89 m/s, 236° | 1109 W/m² | - |
* Rain latest hour (hover to see other rain measurements)
** Current wind speed in m/s (hover to see current wind gust speed)